Regional Weather Roundup
Issued by NWS Sioux Falls, SD

Home | Current Version | Previous Version | Graphics & Text | Print | Product List | Glossary On
Versions: 1 2 3 4 5 6 7 8 9 10 11 12 13 14 15 16 17 18 19 20 21 22 23 24 25 26 27 28 29 30 31 32 33 34 35 36 37 38 39 40 41 42 43 44 45 46 47 48 49 50
000
ASUS43 KFSD 260110
RWRFSD

WEATHER ROUNDUP FOR SE SOUTH DAKOTA/SW MINNESOTA/NW IOWA
NATIONAL WEATHER SERVICE SIOUX FALLS SD
800 PM CDT SAT APR 25 2015

NOTE: "FAIR" INDICATES FEW OR NO CLOUDS BELOW 12,000 FEET WITH NO
SIGNIFICANT WEATHER AND OR OBSTRUCTIONS TO VISIBILITY.


SDZ038>040-050-052>070-260200-
SOUTHEAST SOUTH DAKOTA

CITY           SKY/WX    TMP DP  RH WIND       PRES   REMARKS
BROOKINGS      CLOUDY    55  43  62 SE12      29.89R
CHAMBERLAIN    CLOUDY    56  46  69 E7        29.83R
HURON          MOCLDY    56  43  61 E9        29.85R
MADISON        CLOUDY    54  43  66 E9        29.87R
MITCHELL       MOCLDY    57  46  66 E12       29.84R
SIOUX FALLS    CLOUDY    56  40  55 E13       29.86R
WINNER         CLOUDY    59  45  59 E14       29.80R
YANKTON        MOCLDY    57  39  51 E14       29.83R
$$

MNZ071-072-080-081-089-090-097-098-260200-
SOUTHWEST MINNESOTA

CITY           SKY/WX    TMP DP  RH WIND       PRES   REMARKS
FAIRMONT       MOCLDY    52  36  54 E8        29.89R
JACKSON        MOCLDY    52  37  58 E8        29.90R
LUVERNE        CLOUDY    55  39  54 E14       29.88R
MARSHALL       CLOUDY    54  37  54 S10       29.89R
MONTEVIDEO     CLEAR     55  39  54 E9        29.90R
REDWOOD FALLS  CLOUDY    57  37  47 SE6       29.88R
TRACY          PTCLDY    54  39  57 SE8       29.89R
WINDOM         MOCLDY    52  37  58 CALM      29.90R
WORTHINGTON    CLOUDY    52  37  58 E14G20    29.90R
$$

IAZ001>003-012>014-020>022-031-032-NEZ013-014-SDZ071-260200-
NORTHWEST IOWA

CITY           SKY/WX    TMP DP  RH WIND       PRES   REMARKS
CHEROKEE       CLOUDY    52  43  70 E9        29.86R
DENISON        CLOUDY    50  45  81 E13G18    29.82R
ESTHERVILLE    CLOUDY    50  39  66 E14       29.88R
LE MARS        CLOUDY    55  41  58 E8        29.86R
ORANGE CITY    CLOUDY    52  43  71 E12       29.86R
SHELDON        CLOUDY    52  41  66 E12G20    29.86R
SIOUX CITY     CLOUDY    56  40  55 E13       29.84R
SPENCER        CLOUDY    52  41  66 E13       29.88R
STORM LAKE     CLOUDY    52  41  66 E13G22    29.86R
$$

ABBREVIATIONS USED IN REMARKS
   TC - TEMPERATURE IN CELSIUS
  WCI - WIND CHILL INDEX
   HX - HEAT INDEX
  VSB - VISIBILITY



USA.gov is the U.S. government's official web portal to all federal, state and local government web resources and services.